sat.trackr.live / text

‹ back to catalog

STARLINK-37137

NORAD 68384 · 2026-063E

PAYLOAD ACTIVE UNKNOWN

§ Identity

Operator
Country
US
Launch date
2026-03-26
Launch site
AFWTR
Launch vehicle
Mass (kg)
RCS (m²)

Purposes: comms

External: N2YO · Heavens-Above · Gunter

§ Orbital elements

Epoch: 2026-05-25T03:17:38.862240Z

Period
93.91 min
Inclination
97.2873°
Eccentricity
0.0001199
Mean motion
15.33443502 rev/d
Perigee alt
464.7 km
Apogee alt
466.4 km
Semi-major
6,843.7 km
B*
1.0646e-3
RAAN
287.7430°
Arg perigee
67.0452°
Mean anomaly
293.0917°
Rev number
961

§ Raw data

STARLINK-371371 68384U 26063E   26145.13725535  .00034449  00000+0  10646-2 0  99972 68384  97.2873 287.7430 0001199  67.0452 293.0917 15.33443502  9619

JSON: /api/v1/satellites/68384 · /tle

For live sub-satellite position, see the globe view (requires WebGL).

§ Visibility from observer

Set your observer location to see the next 7 days of passes ≥ 10°. The values pass through the URL so the page stays shareable.

No JS? Fill the form by hand. The geolocation button needs JavaScript.